map of EDL home
Great Circle Mapper logo
EDL - Airport
Location
City:  Eldoret, Kenya
Name:Eldoret International Airport
ICAO / IATA:HKEL / EDL

Details
Type:Airport (Aerodrome, Airfield)
Use:International (customs port of entry)
Latitude:024'16"N (0.404458)
Longitude:3514'20"E (35.238928)
Datum:WGS 1984
Elevation:6941 ft (2116 m)
Runways:1
Longest:11483 × 148 ft (3500 × 45 m), paved

Time
Time Zone:UTC+3
Local Time:

Weather
METAR:HKEL 290000Z 35003KT 9999 SCT018 BKN080 14/12 Q1023
TAF:HKEL 282230Z 2900/2924 11005KT 9999 FEW019
BECMG 2908/2911 11010KT SCT024
TEMPO 2912/2918 08010KT -TSRA FEW024CB BKN025 BKN080
BECMG 2920/2923 FEW020

Related Locations
Nearby:
Farthest:NHV: 11779 mi / 18956 km
Nuku Hiva, Marquesas Islands, PF

Find:

   beyond  
but within

Other Information
Maps:
NOTAMs:
Links:
Sources:

  
flag of Kenya   

Sectional Chart

Flight Planning
at skyvector.com

Satellite Image

Google Maps Satellite View

 

Copyright © 2004-2014 Karl L. Swartz. All rights reserved.
The Great Circle Mapper name and logo are trademarks of the Great Circle Mapper.
All other trademarks mentioned herein belong to their respective owners.
Please see credits for attibutions and further copyright information.

  Follow gcmap on Facebook Follow gcmap on Twitter

hCard Microformat

Geo Microformat